TimeEDT,TemperatureF,Dew PointF,Humidity,Sea Level PressureIn,VisibilityMPH,Wind Direction,Wind SpeedMPH,Gust SpeedMPH,PrecipitationIn,Events,Conditions,WindDirDegrees,DateUTC
12:51 AM,61.0,54.0,78,30.20,10.0,ENE,3.5,-,N/A,,Partly Cloudy,70,2013-08-18 04:51:00
1:51 AM,60.1,54.0,80,30.19,8.0,ENE,4.6,-,N/A,,Partly Cloudy,60,2013-08-18 05:51:00
2:51 AM,59.0,55.0,87,30.19,7.0,ENE,4.6,-,N/A,,Partly Cloudy,60,2013-08-18 06:51:00
3:51 AM,57.9,54.0,87,30.19,7.0,NE,5.8,-,N/A,,Mostly Cloudy,40,2013-08-18 07:51:00
4:51 AM,59.0,54.0,83,30.18,7.0,NE,5.8,-,N/A,,Mostly Cloudy,50,2013-08-18 08:51:00
5:51 AM,59.0,55.0,87,30.19,7.0,NE,5.8,-,N/A,,Mostly Cloudy,50,2013-08-18 09:51:00
6:51 AM,60.1,55.0,83,30.19,7.0,East,5.8,-,N/A,,Overcast,90,2013-08-18 10:51:00
7:51 AM,62.1,55.9,80,30.21,6.0,East,3.5,-,N/A,,Haze,100,2013-08-18 11:51:00
8:51 AM,63.0,57.0,81,30.22,7.0,SE,3.5,-,N/A,,Overcast,130,2013-08-18 12:51:00
9:51 AM,66.0,57.9,75,30.21,7.0,SSE,5.8,-,N/A,,Overcast,150,2013-08-18 13:51:00
10:51 AM,68.0,59.0,73,30.22,7.0,South,3.5,-,N/A,,Overcast,180,2013-08-18 14:51:00
11:51 AM,69.1,60.1,73,30.21,8.0,SSE,3.5,-,N/A,,Overcast,150,2013-08-18 15:51:00
12:51 PM,71.1,61.0,70,30.21,8.0,Calm,Calm,-,N/A,,Overcast,0,2013-08-18 16:51:00
1:51 PM,71.1,62.1,73,30.20,6.0,West,4.6,-,0.00,Rain,Light Rain,280,2013-08-18 17:51:00
2:51 PM,72.0,63.0,73,30.19,9.0,WSW,4.6,-,0.00,,Overcast,240,2013-08-18 18:51:00
3:51 PM,73.0,62.1,68,30.17,9.0,SSW,4.6,-,N/A,,Overcast,210,2013-08-18 19:51:00
4:51 PM,73.0,62.1,68,30.16,9.0,South,5.8,-,N/A,,Mostly Cloudy,190,2013-08-18 20:51:00
5:51 PM,72.0,62.1,71,30.16,9.0,SSE,5.8,-,N/A,,Overcast,160,2013-08-18 21:51:00
6:51 PM,72.0,63.0,73,30.15,9.0,SSE,9.2,-,N/A,,Overcast,160,2013-08-18 22:51:00
7:51 PM,71.1,63.0,75,30.14,9.0,South,8.1,-,N/A,,Mostly Cloudy,190,2013-08-18 23:51:00
8:51 PM,70.0,63.0,78,30.14,9.0,SSW,4.6,-,N/A,,Mostly Cloudy,210,2013-08-19 00:51:00
9:34 PM,68.0,62.6,83,30.16,10.0,South,3.5,-,N/A,,Mostly Cloudy,190,2013-08-19 01:34:00
9:51 PM,66.9,62.1,84,30.15,10.0,South,4.6,-,N/A,,Mostly Cloudy,180,2013-08-19 01:51:00
10:51 PM,68.0,63.0,84,30.16,8.0,Calm,Calm,-,N/A,,Overcast,0,2013-08-19 02:51:00
11:30 PM,68.0,62.6,83,30.17,8.0,Calm,Calm,-,N/A,,Overcast,0,2013-08-19 03:30:00
11:51 PM,68.0,63.0,84,30.16,8.0,South,3.5,-,N/A,,Overcast,190,2013-08-19 03:51:00